Miscellaneous Local Product
Issued by NWS North Platte, NE

Home | Current Version | Previous Version | Graphics & Text | Print | Product List | Glossary On
Versions: 1 2 3 4 5 6 7 8 9 10 11 12 13 14 15 16 17 18 19 20 21 22 23 24 25 26 27 28 29 30 31 32 33 34 35 36 37 38 39 40 41 42 43 44 45 46 47 48 49 50
000
AXUS43 KLBF 042010
MISLBF


WESTERN AND NORTH CENTRAL NEBRASKA HOURLY WEATHER ROUNDUP
NATIONAL WEATHER SERVICE NORTH PLATTE NE
300 PM CDT SAT JUL 04 2015

***STATIONS NOT REPORTING VARIABLES SUCH AS SKY/WEATHER OR
PRESSURE ARE PROVIDED BY THE NEBRASKA DEPARTMENT OF
ROADS...RAWS...AND APRS NETWORKS...AND ARE NOT UNDER
NATIONAL WEATHER SERVICE QUALITY CONTROL***

...OBSERVATIONS IN AND NEAR THE EASTERN PANHANDLE OF NEBRASKA...

CITY           SKY/WX    TMP DP  RH WIND       PRES   REMARKS
PINE RIDGE     SUNNY     89  66  46 SW15G23   29.85S HX  91
CHADRON        SUNNY     91  65  41 SE6       29.84F HX  93
ALLIANCE       SUNNY     89  63  41 S14G22    29.90F HX  90
SIDNEY         SUNNY     91  58  32 S15G24    29.94F HX  90
WHITECLAY        N/A     88  63  42 S14         N/A
CRESCENT LAKE    N/A     90  62  39 S9G16       N/A  HX  90
BIG SPRINGS      N/A     92  62  36 S12         N/A  HX  92
$$

...OBSERVATIONS IN NORTH CENTRAL NEBRASKA...

CITY           SKY/WX    TMP DP  RH WIND       PRES   REMARKS
VALENTINE      SUNNY     89  64  43 S16       29.86F HX  90
THEDFORD       SUNNY     88  65  47 S20G26    29.92S
AINSWORTH      SUNNY     88  64  45 S17       29.89F
O`NEILL        MOSUNNY   85  65  50 S12G20    29.92F
ORD            SUNNY     86  64  47 S12G24    29.92F
BROKEN BOW     MOSUNNY   85  66  53 S17G26    29.94S
VALENTINE NWR    N/A     89  65  44 S15G23      N/A  HX  90
SPRINGVIEW       N/A     89  67  47 SW10        N/A  HX  91
HALSEY           N/A     85  63  47 S13G20      N/A
BREWSTER         N/A     91  67  46 S20         N/A  HX  94
ROSE             N/A     95  78  57 S20         N/A  HX 111
NEWPORT          N/A     86  66  50 S14         N/A
SARGENT          N/A     85  67  54 MISG        N/A
CHAMBERS         N/A     86  66  50 S3G13       N/A
EWING            N/A     84  69  59 S10         N/A
$$

...OBSERVATIONS IN SOUTHWEST NEBRASKA AND FAR NORTHEAST COLORADO...

CITY           SKY/WX    TMP DP  RH WIND       PRES   REMARKS
WRAY           FAIR      96  52  21 S12G23    29.91F HX  94
HOLYOKE        FAIR      95  59  30 SE16G23   29.92F HX  94
IMPERIAL       SUNNY     94  58  29 S17G25    29.90F HX  93
OGALLALA       SUNNY     90  63  40 S12G25    29.90F HX  90
NORTH PLATTE   MOSUNNY   89  64  43 S15G24    29.91F HX  90
MCCOOK         MOSUNNY   94  59  31 S18G24    29.90F HX  93
LEXINGTON      MOSUNNY   87  65  48 S16G22    29.94F
PAXTON           N/A     91  66  43 SE14        N/A  HX  93
GOTHENBURG       N/A     85  61  44 SE15        N/A
CALLAWAY         N/A     85  72  64 S16         N/A  HX  90
$$

...NORTH PLATTE AREA...

CITY           SKY/WX    TMP DP  RH WIND       PRES   REMARKS
AIRPORT        MOSUNNY   89  64  43 S15G24    29.91F HX  90
DOWNTOWN         N/A     88  67  49 S7G17       N/A  HX  91
HILLCREST        N/A     87  66  49 S15G25      N/A
$$

...SOME WEATHER OBSERVATIONS FROM AROUND THE REGION...

CITY           SKY/WX    TMP DP  RH WIND       PRES   REMARKS
DENVER         MOSUNNY   93  46  19 N10       30.00S
LARAMIE        LGT RAIN  80  44  27 W9        30.14S
CHEYENNE       MOSUNNY   88  44  21 NW7       30.05S
SCOTTSBLUFF    SUNNY     93  58  30 E9        29.88F HX  92
RAPID CITY       N/A     88  67  49 SE7       29.84S HX  91
PIERRE         SUNNY     89  68  49 SE16      29.77F HX  93
WINNER         FAIR      92  60  34 S17       29.84S HX  91
SIOUX FALLS    PTSUNNY   81  65  58 S12       29.92F
OMAHA          PTSUNNY   82  59  45 S10G18    29.97F
GRAND ISLAND   MOSUNNY   83  66  56 S13       29.96F
KANSAS CITY    PTSUNNY   80  63  55 S7        29.99F
WICHITA        MOSUNNY   89  62  40 SE10      29.96F
HAYS           MOSUNNY   88  64  45 S18       29.94F
LIBERAL        SUNNY     90  63  40 S17G23    29.98F HX  90
GOODLAND       SUNNY     91  59  33 S15G25    29.93F HX  90
$$



USA.gov is the U.S. government's official web portal to all federal, state and local government web resources and services.